• Em Portugal
  • Lista de países
  • Para 7 dias
  • Temperatura da água
  • Mapas de satélite
  • Mapa do tempo
  • Widgets de tempo
  • user-avatar
    Iniciar Sessão

    Previsão horária em Piertanie

    Hoje, 18 Agosto, Sábado

    Tempo Temperatura Precipitação Vento Pressão Humidade
    00:00 +19°C° 0 mm 1 m/s 751 mmHg 86%
    01:00 +19°C° 0 mm 1 m/s 751 mmHg 87%
    02:00 +18°C° 0 mm 1 m/s 751 mmHg 88%
    03:00 +18°C° 0 mm 1 m/s 751 mmHg 89%
    04:00 +18°C° 0 mm 1 m/s 751 mmHg 90%
    05:00 +18°C° 0 mm 1 m/s 751 mmHg 90%
    06:00 +19°C° 0 mm 1 m/s 751 mmHg 85%
    07:00 +21°C° 0 mm 1 m/s 751 mmHg 79%
    08:00 +22°C° 0 mm 1 m/s 752 mmHg 74%
    09:00 +24°C° 0,1 mm 1 m/s 752 mmHg 68%
    10:00 +25°C° 0,1 mm 1 m/s 752 mmHg 63%
    11:00 +27°C° 0,1 mm 1 m/s 752 mmHg 57%
    12:00 +27°C° 0,2 mm 1 m/s 752 mmHg 55%
    13:00 +28°C° 0,2 mm 1 m/s 751 mmHg 53%
    14:00 +28°C° 0,2 mm 1 m/s 751 mmHg 51%
    15:00 +28°C° 0,1 mm 1 m/s 751 mmHg 53%
    16:00 +28°C° 0,1 mm 1 m/s 751 mmHg 55%
    17:00 +28°C° 0,1 mm 1 m/s 751 mmHg 57%
    18:00 +26°C° 0,2 mm 2 m/s 751 mmHg 65%
    19:00 +24°C° 0,2 mm 2 m/s 751 mmHg 73%
    20:00 +21°C° 0,2 mm 2 m/s 751 mmHg 81%
    21:00 +20°C° 0 mm 2 m/s 751 mmHg 85%
    22:00 +19°C° 0 mm 2 m/s 752 mmHg 88%
    23:00 +18°C° 0 mm 2 m/s 752 mmHg 91%

    Amanhã, 19 Agosto, Domingo

    Tempo Temperatura Precipitação Vento Pressão Humidade
    00:00 +18°C° 0 mm 2 m/s 752 mmHg 93%
    01:00 +17°C° 0 mm 2 m/s 752 mmHg 94%
    02:00 +16°C° 0 mm 2 m/s 752 mmHg 96%
    03:00 +16°C° 0 mm 2 m/s 752 mmHg 95%
    04:00 +16°C° 0 mm 2 m/s 752 mmHg 94%
    05:00 +15°C° 0 mm 1 m/s 752 mmHg 93%
    06:00 +16°C° 0 mm 1 m/s 752 mmHg 87%
    07:00 +17°C° 0 mm 2 m/s 753 mmHg 81%
    08:00 +18°C° 0 mm 2 m/s 753 mmHg 76%
    09:00 +20°C° 0 mm 2 m/s 753 mmHg 69%
    10:00 +21°C° 0 mm 2 m/s 753 mmHg 62%
    11:00 +24°C° 0 mm 3 m/s 753 mmHg 55%
    12:00 +24°C° 0 mm 3 m/s 753 mmHg 55%
    13:00 +25°C° 0 mm 3 m/s 752 mmHg 54%
    14:00 +25°C° 0 mm 3 m/s 752 mmHg 53%
    15:00 +25°C° 0 mm 3 m/s 752 mmHg 54%
    16:00 +25°C° 0 mm 3 m/s 752 mmHg 55%
    17:00 +25°C° 0 mm 3 m/s 752 mmHg 56%
    18:00 +24°C° 0 mm 2 m/s 752 mmHg 63%
    19:00 +22°C° 0 mm 1 m/s 752 mmHg 69%
    20:00 +20°C° 0 mm 1 m/s 752 mmHg 75%
    21:00 +19°C° 0 mm 1 m/s 752 mmHg 78%
    22:00 +19°C° 0 mm 1 m/s 752 mmHg 80%
    23:00 +16°C° 0 mm 0 m/s 752 mmHg 83%

    Depois de amanhã, 20 Agosto, Segunda-feira

    Tempo Temperatura Precipitação Vento Pressão Humidade
    00:00 +18°C° 0 mm 1 m/s 752 mmHg 84%
    01:00 +18°C° 0 mm 1 m/s 752 mmHg 85%
    02:00 +16°C° 0 mm 1 m/s 751 mmHg 86%
    03:00 +16°C° 0 mm 1 m/s 751 mmHg 85%
    04:00 +16°C° 0 mm 1 m/s 751 mmHg 85%
    05:00 +16°C° 0 mm 1 m/s 751 mmHg 85%
    06:00 +17°C° 0 mm 2 m/s 751 mmHg 80%
    07:00 +18°C° 0 mm 2 m/s 751 mmHg 76%
    08:00 +20°C° 0 mm 2 m/s 751 mmHg 71%
    09:00 +21°C° 0 mm 2 m/s 751 mmHg 67%
    10:00 +24°C° 0 mm 3 m/s 751 mmHg 62%
    11:00 +25°C° 0 mm 3 m/s 751 mmHg 57%
    12:00 +26°C° 0 mm 3 m/s 750 mmHg 56%
    13:00 +26°C° 0 mm 3 m/s 750 mmHg 56%
    14:00 +27°C° 0 mm 3 m/s 749 mmHg 55%
    15:00 +27°C° 0,2 mm 3 m/s 749 mmHg 56%
    16:00 +27°C° 0,2 mm 3 m/s 749 mmHg 58%
    17:00 +27°C° 0,2 mm 3 m/s 748 mmHg 59%
    18:00 +25°C° 0,2 mm 2 m/s 748 mmHg 63%
    19:00 +24°C° 0,2 mm 1 m/s 748 mmHg 68%
    20:00 +22°C° 0,2 mm 1 m/s 748 mmHg 72%
    21:00 +22°C° 0,4 mm 1 m/s 748 mmHg 76%
    22:00 +21°C° 0,4 mm 1 m/s 748 mmHg 80%
    23:00 +19°C° 0,4 mm 2 m/s 747 mmHg 84%

    21 Agosto, Terça-feira

    Tempo Temperatura Precipitação Vento Pressão Humidade
    00:00 +19°C° 0,3 mm 2 m/s 747 mmHg 86%
    01:00 +18°C° 0,3 mm 2 m/s 747 mmHg 89%
    02:00 +18°C° 0,3 mm 2 m/s 747 mmHg 91%
    03:00 +18°C° 0,3 mm 3 m/s 746 mmHg 91%
    04:00 +18°C° 0,3 mm 3 m/s 746 mmHg 92%
    05:00 +18°C° 0,3 mm 4 m/s 746 mmHg 92%
    06:00 +18°C° 0,1 mm 4 m/s 746 mmHg 91%
    07:00 +19°C° 0,1 mm 5 m/s 746 mmHg 89%
    08:00 +19°C° 0,1 mm 5 m/s 747 mmHg 88%
    09:00 +20°C° 0 mm 5 m/s 747 mmHg 82%
    10:00 +20°C° 0 mm 6 m/s 747 mmHg 77%
    11:00 +21°C° 0 mm 6 m/s 748 mmHg 71%
    12:00 +22°C° 0 mm 6 m/s 748 mmHg 66%
    13:00 +22°C° 0 mm 6 m/s 748 mmHg 62%
    14:00 +23°C° 0 mm 6 m/s 748 mmHg 57%
    15:00 +22°C° 0 mm 6 m/s 749 mmHg 59%
    16:00 +22°C° 0 mm 6 m/s 749 mmHg 61%
    17:00 +21°C° 0 mm 5 m/s 749 mmHg 63%
    18:00 +20°C° 0 mm 5 m/s 750 mmHg 70%
    19:00 +18°C° 0 mm 4 m/s 750 mmHg 77%
    20:00 +17°C° 0 mm 3 m/s 750 mmHg 84%
    21:00 +16°C° 0 mm 3 m/s 751 mmHg 87%
    22:00 +14°C° 0 mm 3 m/s 751 mmHg 90%
    23:00 +14°C° 0 mm 2 m/s 752 mmHg 93%

    22 Agosto, Quarta-feira

    Tempo Temperatura Precipitação Vento Pressão Humidade
    00:00 +14°C° 0 mm 2 m/s 752 mmHg 93%
    01:00 +13°C° 0 mm 2 m/s 752 mmHg 94%
    02:00 +13°C° 0 mm 2 m/s 752 mmHg 94%
    03:00 +12°C° 0 mm 1 m/s 752 mmHg 94%
    04:00 +12°C° 0 mm 1 m/s 753 mmHg 94%
    05:00 +11°C° 0 mm 0 m/s 753 mmHg 94%
    06:00 +13°C° 0 mm 1 m/s 753 mmHg 89%
    07:00 +15°C° 0 mm 1 m/s 753 mmHg 83%
    08:00 +16°C° 0 mm 1 m/s 753 mmHg 78%
    09:00 +19°C° 0 mm 1 m/s 753 mmHg 71%
    10:00 +19°C° 0 mm 2 m/s 753 mmHg 65%
    11:00 +21°C° 0 mm 2 m/s 753 mmHg 58%
    12:00 +23°C° 0 mm 2 m/s 753 mmHg 56%
    13:00 +22°C° 0 mm 3 m/s 753 mmHg 55%
    14:00 +24°C° 0 mm 3 m/s 752 mmHg 53%
    15:00 +24°C° 0 mm 2 m/s 752 mmHg 58%
    16:00 +23°C° 0 mm 2 m/s 752 mmHg 63%
    17:00 +23°C° 0 mm 2 m/s 751 mmHg 68%
    18:00 +21°C° 0 mm 2 m/s 751 mmHg 72%
    19:00 +20°C° 0 mm 2 m/s 751 mmHg 75%
    20:00 +19°C° 0 mm 2 m/s 751 mmHg 79%
    21:00 +19°C° 0,1 mm 2 m/s 751 mmHg 79%
    22:00 +19°C° 0,1 mm 3 m/s 751 mmHg 79%
    23:00 +19°C° 0,1 mm 3 m/s 751 mmHg 80%

    23 Agosto, Quinta-feira

    Tempo Temperatura Precipitação Vento Pressão Humidade
    00:00 +18°C° 0 mm 3 m/s 751 mmHg 82%
    01:00 +18°C° 0 mm 3 m/s 751 mmHg 83%
    02:00 +18°C° 0 mm 2 m/s 751 mmHg 85%
    03:00 +17°C° 0 mm 2 m/s 751 mmHg 88%
    04:00 +16°C° 0 mm 2 m/s 750 mmHg 90%
    05:00 +16°C° 0 mm 2 m/s 750 mmHg 92%
    06:00 +17°C° 0 mm 2 m/s 751 mmHg 88%
    07:00 +18°C° 0 mm 2 m/s 751 mmHg 84%
    08:00 +19°C° 0 mm 2 m/s 751 mmHg 79%
    09:00 +21°C° 0 mm 3 m/s 751 mmHg 74%
    10:00 +22°C° 0 mm 3 m/s 751 mmHg 70%
    11:00 +24°C° 0 mm 3 m/s 751 mmHg 65%
    12:00 +25°C° 0,1 mm 3 m/s 751 mmHg 63%
    13:00 +26°C° 0,1 mm 4 m/s 750 mmHg 62%
    14:00 +26°C° 0,1 mm 4 m/s 750 mmHg 60%
    15:00 +26°C° 0,2 mm 3 m/s 750 mmHg 63%
    16:00 +25°C° 0,2 mm 3 m/s 750 mmHg 65%
    17:00 +25°C° 0,2 mm 3 m/s 750 mmHg 68%
    18:00 +23°C° 0 mm 2 m/s 750 mmHg 74%
    19:00 +21°C° 0 mm 2 m/s 750 mmHg 81%
    20:00 +20°C° 0 mm 1 m/s 750 mmHg 87%
    21:00 +19°C° 0 mm 1 m/s 750 mmHg 89%
    22:00 +19°C° 0 mm 1 m/s 750 mmHg 90%
    23:00 +18°C° 0 mm 1 m/s 750 mmHg 92%
    Mostrar mais